Temperature
16 16 16 17 17 17 17 17 17 18 17 17 17 17 16 16 16 16 16 16 16 16 16 16 16 16 16 16 15 15 15 15 15 15 15 15 15 15
16 16 16 16 17 16 16 16 17 17 17 17 16 16 16 16 16 16 16 16 16 16 16 16 16 16 15 15 15 15 15 15 15 15 15 15 15 15
16 16 16 16 16 16 16 16 16 16 16 16 16 16 15 15 15 15 15 15 15 15 16 16 15 15 15 15 15 15 15 15 15 15 15 15 15 15
16 16 15 16 16 16 16 16 16 16 16 16 16 16 15 15 15 15 15 15 15 15 15 15 15 15 15 15 15 15 15 15 15 15 15 14 14 14
15 15 15 15 15 15 15 15 15 16 15 16 16 15 15 15 15 15 15 14 14 15 15 15 15 15 14 14 14 14 14 14 14 14 14 14 14 14
15 15 15 15 15 15 15 15 15 15 15 15 15 15 15 15 14 14 14 14 14 14 14 14 14 14 14 14 14 14 14 14 14 14 14 14 14 14
15 15 15 15 15 15 15 15 15 15 15 15 15 15 15 14 14 14 14 14 14 14 14 14 14 14 14 14 14 14 14 14 14 14 14 14 14 14
15 15 15 15 15 15 15 15 14 14 14 14 15 14 14 14 14 14 14 14 14 14 13 13 13 13 13 13 13 14 13 14 14 13 13 13 13 13
14 14 14 14 14 14 14 14 14 14 14 14 14 14 14 14 13 13 13 13 13 13 13 13 13 13 13 13 13 13 13 13 13 13 13 13 13 13
14 14 14 14 14 14 14 13 13 14 14 14 13 13 13 13 13 13 13 13 13 13 13 13 13 12 12 12 12 12 12 12 13 13 12 13 13 13
14 14 14 14 14 13 13 13 13 13 13 13 13 13 13 13 13 13 12 13 13 13 12 12 12 12 12 12 12 12 12 12 12 12 12 12 12 12
14 14 14 13 13 13 13 13 13 13 13 13 13 12 12 12 12 12 12 12 12 12 12 12 12 12 12 12 12 12 12 12 12 12 12 12 12 11
13 13 13 13 13 13 13 13 12 12 12 12 12 12 12 12 11 11 11 11 12 12 12 11 11 12 12 12 12 11 11 11 11 11 11 11 11 11
13 13 13 13 13 13 13 12 12 12 12 12 12 12 12 11 11 11 11 11 11 11 11 11 11 11 11 11 11 11 11 11 11 11 11 11 11 11
12 12 12 13 12 12 12 12 12 12 12 12 12 11 11 11 11 11 11 11 10 11 10 10 10 10 10 11 11 11 11 11 11 11 11 10 10 10
12 12 12 12 12 12 12 11 11 11 11 11 11 11 11 11 10 10 10 10 10 11 10 10 10 10 10 10 10 11 11 11 10 10 10 10 10 10
12 12 12 12 12 11 11 11 11 11 11 11 11 11 10 10 10 10 10 10 10 10 10 10 10 10 10 10 10 10 10 10 10 10 10 10 10 10
12 12 11 11 11 11 11 11 10 10 10 10 10 10 10 10 10 10 10 10 10 10 10 10 10 10 10 10 9 9 10 10 10 9 9 10 10 10
11 11 11 11 11 11 10 10 10 10 10 10 10 9 9 9 10 10 9 9 9 9 9 9 9 9 10 10 10 9 9 9 9 9 9 9 10 10
11 11 11 10 10 10 10 10 10 10 9 9 9 9 9 9 9 9 9 9 9 9 9 9 9 9 9 9 9 9 9 9 9 9 9 9 9 9
11 11 11 10 10 10 10 10 9 9 9 9 9 9 9 9 9 9 9 9 9 9 9 9 9 8 8 8 9 9 9 9 8 8 8 8 9 9
11 11 11 10 10 10 9 9 9 9 9 9 9 8 8 8 8 8 8 8 8 9 9 9 8 8 8 8 9 9 9 9 8 8 8 8 8 8
10 10 10 10 10 9 9 9 9 9 9 8 8 8 8 8 8 8 8 8 8 8 8 8 8 8 8 8 8 9 9 9 9 8 8 8 8 8
Wind_Speed
4 4 4 4 4 4 5 5 5 5 4 3 3 2 2 1 1 3 2 3 4 4 4 4 5 5 6 6 6 8 8 9 9 9 9 9 11 12
3 4 4 4 4 4 4 5 5 6 5 3 3 2 2 2 2 3 2 3 4 4 4 4 5 5 6 6 7 7 7 8 9 9 8 8 9 9
3 3 4 5 4 4 4 5 5 5 5 4 3 2 3 4 3 3 3 3 3 5 4 4 4 5 5 6 6 7 7 7 8 9 8 8 7 7
4 4 4 4 4 5 4 5 4 4 5 5 4 3 4 3 3 4 3 3 2 4 5 4 3 4 5 6 6 7 7 7 7 8 8 8 8 8
4 4 5 4 5 4 5 5 5 4 4 5 4 3 3 2 3 3 3 2 3 4 6 6 4 4 4 5 6 6 7 7 7 7 7 7 7 7
4 4 4 4 5 5 5 5 5 5 5 5 4 3 2 2 3 2 2 2 3 2 2 3 5 6 4 3 4 5 6 6 7 7 7 7 7 7
4 4 4 4 5 5 5 5 5 5 5 4 4 3 2 2 3 3 2 3 3 2 2 2 3 2 3 4 4 3 5 5 6 7 7 7 7 8
5 5 4 3 3 4 4 5 6 5 5 5 4 4 3 3 3 3 3 3 3 2 3 3 2 2 2 1 3 3 3 4 5 6 6 7 8 8
5 5 5 3 3 4 4 5 5 5 6 6 5 5 4 3 4 5 4 4 4 3 3 3 2 2 2 2 6 5 4 4 5 5 4 5 6 7
5 5 5 5 4 4 5 4 4 4 4 5 4 4 3 3 3 5 4 4 4 3 3 4 3 2 2 1 5 5 5 5 5 5 5 5 5 5
4 4 5 5 2 4 4 4 4 3 1 1 2 1 1 1 2 2 2 3 3 2 2 3 3 3 3 2 4 6 6 6 6 6 6 6 5 5
4 4 2 2 1 2 3 3 3 3 3 2 1 1 2 3 4 3 3 3 3 2 1 3 3 3 3 3 2 4 5 6 7 8 8 7 5 5
4 3 1 2 1 2 4 3 3 3 3 3 2 2 2 2 2 2 2 3 3 3 2 3 4 4 4 3 3 3 3 3 4 5 8 8 7 6
4 3 1 2 2 3 2 1 2 3 3 2 2 2 2 2 1 1 2 2 3 3 3 4 4 4 4 4 4 3 3 3 3 3 4 6 8 9
3 2 0 2 3 3 3 3 3 2 2 2 2 2 2 2 2 1 1 1 2 2 2 4 4 4 5 5 4 3 3 3 4 3 4 4 5 5
2 1 4 4 2 1 1 2 2 2 2 2 2 2 2 2 2 2 2 2 2 2 2 3 4 5 5 5 5 5 4 4 4 4 4 4 5 6
2 2 1 1 1 1 1 1 1 1 1 2 2 2 2 3 2 2 3 3 3 3 2 2 4 4 5 5 5 5 5 5 4 3 5 6 5 5
3 2 2 2 2 2 2 2 1 2 2 2 2 2 3 3 3 3 3 4 4 4 3 3 3 4 5 5 4 6 5 5 4 4 6 6 6 5
3 2 2 2 3 2 2 3 2 2 2 2 2 3 3 4 4 4 4 4 4 4 4 4 4 5 6 6 4 5 6 5 5 6 6 6 6 5
3 3 2 3 3 3 3 3 3 2 2 3 3 3 3 4 4 4 4 4 5 5 4 4 5 5 6 7 6 5 7 7 6 6 6 6 5 3
4 3 3 3 3 3 3 3 3 3 2 3 3 3 4 4 4 4 4 4 5 5 6 5 4 5 6 6 7 6 5 6 6 6 6 6 6 6
4 3 3 3 3 4 3 3 3 3 3 3 3 4 4 4 4 5 5 5 5 6 6 5 4 5 6 7 8 7 6 4 5 8 8 7 6 6
4 4 3 4 4 3 3 4 4 3 3 3 3 3 4 4 4 5 5 5 5 5 6 6 5 5 6 7 7 7 7 6 5 5 5 6 8 8
Wind_Direction
267 256 259 268 267 272 269 266 269 271 267 255 255 248 255 258 215 242 236 166 190 206 214 217 219 221 215 212 214 213 215 213 214 215 215 214 211 212
278 283 278 275 275 268 267 271 269 269 273 278 275 283 290 280 242 260 242 175 179 194 206 215 216 217 214 212 214 212 212 213 214 212 212 213 213 215
286 277 276 285 284 277 270 269 265 260 261 272 280 286 279 277 277 265 251 240 198 171 185 205 213 218 218 216 215 213 211 210 211 208 209 206 208 211
288 288 286 279 278 277 277 271 270 261 257 262 272 275 264 264 264 261 256 247 238 160 173 189 207 217 220 219 216 215 211 208 208 208 206 200 200 203
288 287 290 290 285 287 282 279 275 264 261 258 262 262 265 266 260 259 259 255 248 180 176 186 196 208 219 223 220 217 210 205 204 202 199 196 195 197
292 291 291 289 286 287 281 278 277 273 262 259 262 258 255 259 260 259 265 262 263 245 221 195 183 194 202 210 220 214 206 202 202 200 198 197 196 196
284 288 290 297 312 298 294 292 281 273 268 263 264 270 274 273 273 266 267 269 251 261 257 232 194 203 196 194 191 206 205 206 205 201 198 201 200 197
285 285 278 270 277 266 283 296 293 279 278 274 265 268 271 272 281 273 275 273 264 262 268 259 242 240 221 187 128 149 185 189 191 194 198 202 201 199
280 282 284 289 278 285 266 245 255 261 269 272 276 280 275 273 269 262 262 271 277 279 271 264 254 246 229 124 131 156 172 172 170 172 172 182 195 198
273 272 276 285 291 297 288 285 287 285 269 256 270 284 298 295 264 257 256 253 243 238 255 260 256 258 256 178 152 166 176 180 173 166 165 168 177 193
275 274 276 280 334 322 287 285 287 281 260 245 273 286 321 293 279 268 262 258 258 241 245 262 267 269 257 237 179 176 185 186 182 179 176 177 187 206
270 267 272 292 38 328 287 282 283 294 306 318 314 231 233 220 220 255 269 267 265 263 254 261 260 266 259 240 220 202 202 191 193 192 189 189 200 225
279 277 292 110 59 305 293 287 295 298 284 276 274 266 243 239 235 241 285 280 272 273 263 261 269 265 266 268 258 243 230 222 214 210 198 192 198 221
283 289 1 142 236 264 272 297 282 269 266 276 281 290 295 296 289 289 301 294 293 288 289 281 274 276 271 270 267 250 249 245 233 229 224 197 207 213
294 10 54 206 231 235 212 210 230 256 269 277 290 305 310 313 308 290 257 231 241 249 249 260 266 269 272 272 273 263 260 254 244 243 241 234 230 222
264 196 187 208 241 302 241 227 250 298 307 300 303 309 306 294 281 283 273 259 256 253 233 250 258 264 268 275 271 265 262 256 245 249 253 252 243 233
237 234 248 242 248 272 286 295 299 299 290 302 303 302 291 286 278 269 270 262 262 266 259 249 244 248 260 271 267 263 263 262 254 246 251 254 246 239
228 226 243 258 270 280 281 277 275 291 302 302 292 290 283 277 276 272 271 272 273 276 276 278 275 268 262 254 250 264 264 261 257 247 252 254 256 247
214 236 249 259 267 273 275 275 276 262 266 274 282 286 287 283 277 271 264 267 273 278 279 274 271 271 271 272 250 237 264 265 256 252 249 254 259 258
229 240 244 255 262 266 270 270 268 263 250 252 261 269 276 281 284 283 279 279 278 274 270 271 267 267 273 284 286 263 234 251 255 256 258 262 271 274
235 238 241 245 256 263 265 265 262 257 264 269 265 267 271 274 280 283 284 281 277 274 272 271 274 267 275 280 275 272 256 226 241 254 259 260 264 263
250 250 252 256 257 259 256 258 258 254 252 256 262 262 266 272 277 280 282 280 279 281 281 278 267 260 262 268 274 275 272 257 232 225 238 254 265 266
261 263 258 254 251 246 245 246 252 255 255 262 265 264 269 273 275 276 278 281 284 288 291 288 278 267 268 269 275 276 270 263 262 258 248 229 233 245
Height
1525 1524 1524 1524 1523 1523 1522 1522 1522 1520 1519 1518 1518 1518 1517 1516 1515 1514 1512 1511 1511 1510 1509 1509 1508 1508 1508 1508 1509 1509 1510 1511 1512 1513 1514 1516 1517 1519
1522 1521 1521 1521 1521 1520 1519 1519 1518 1518 1516 1516 1515 1515 1514 1514 1512 1511 1510 1509 1508 1507 1506 1506 1505 1505 1505 1505 1506 1506 1507 1508 1509 1510 1511 1512 1514 1515
1520 1519 1518 1517 1517 1517 1516 1516 1515 1515 1513 1513 1513 1512 1511 1510 1509 1508 1508 1506 1505 1504 1503 1503 1502 1502 1502 1502 1502 1503 1504 1504 1505 1506 1507 1509 1510 1512
1517 1517 1516 1515 1514 1514 1513 1512 1512 1511 1511 1509 1509 1509 1508 1507 1506 1505 1505 1504 1503 1501 1500 1500 1499 1498 1498 1499 1499 1499 1500 1500 1502 1503 1504 1505 1507 1508
1515 1514 1513 1512 1512 1511 1510 1510 1509 1509 1508 1507 1506 1505 1505 1504 1503 1502 1502 1501 1500 1499 1498 1497 1496 1496 1495 1495 1496 1496 1496 1497 1498 1499 1501 1502 1503 1505
1512 1511 1511 1510 1509 1508 1507 1506 1506 1505 1504 1504 1503 1502 1502 1501 1500 1500 1499 1498 1498 1497 1495 1494 1493 1493 1493 1492 1492 1493 1493 1494 1495 1496 1497 1499 1500 1501
1509 1509 1508 1507 1506 1505 1505 1504 1503 1502 1501 1501 1500 1499 1499 1498 1497 1497 1496 1495 1495 1494 1493 1493 1491 1490 1490 1489 1489 1490 1490 1490 1491 1492 1493 1495 1496 1498
1507 1506 1505 1503 1502 1501 1501 1500 1499 1498 1498 1497 1497 1496 1495 1495 1494 1494 1493 1493 1492 1492 1491 1490 1490 1489 1488 1488 1486 1487 1486 1486 1486 1487 1489 1490 1492 1493
1504 1503 1502 1501 1499 1498 1497 1496 1496 1495 1494 1494 1493 1492 1492 1491 1491 1490 1490 1489 1488 1488 1488 1487 1487 1486 1486 1485 1484 1483 1483 1483 1483 1484 1485 1486 1487 1489
1500 1499 1498 1497 1496 1495 1494 1493 1492 1491 1490 1490 1489 1489 1489 1487 1487 1487 1486 1486 1485 1485 1485 1485 1485 1485 1484 1483 1481 1481 1480 1480 1480 1480 1481 1482 1484 1485
1497 1496 1495 1494 1492 1491 1491 1489 1488 1487 1486 1486 1486 1485 1484 1484 1484 1484 1483 1483 1483 1482 1482 1483 1482 1482 1481 1480 1479 1478 1478 1478 1478 1478 1478 1479 1480 1482
1494 1493 1492 1491 1489 1488 1487 1486 1485 1484 1483 1483 1483 1482 1482 1481 1481 1480 1481 1481 1480 1480 1479 1480 1479 1479 1479 1478 1478 1476 1476 1476 1475 1476 1476 1477 1478 1479
1492 1491 1489 1487 1486 1485 1484 1483 1482 1481 1481 1481 1481 1481 1480 1479 1479 1479 1478 1478 1478 1478 1478 1477 1477 1477 1477 1476 1476 1475 1474 1474 1473 1473 1474 1474 1475 1476
1489 1488 1486 1485 1483 1482 1481 1480 1480 1479 1479 1479 1479 1478 1478 1478 1477 1477 1476 1475 1475 1475 1474 1474 1474 1474 1474 1473 1473 1472 1472 1472 1471 1471 1472 1472 1472 1472
1486 1485 1483 1482 1481 1480 1479 1478 1477 1477 1477 1477 1476 1476 1476 1475 1475 1474 1473 1473 1473 1473 1472 1471 1472 1472 1472 1471 1470 1470 1470 1469 1469 1469 1469 1469 1469 1469
1483 1482 1481 1480 1479 1478 1478 1477 1476 1475 1475 1474 1474 1474 1474 1473 1473 1472 1472 1471 1471 1471 1470 1469 1469 1468 1468 1468 1468 1467 1467 1466 1466 1466 1466 1466 1466 1466
1480 1480 1479 1478 1477 1477 1476 1475 1474 1473 1473 1472 1472 1471 1471 1471 1471 1470 1470 1469 1469 1468 1468 1467 1466 1466 1465 1465 1465 1464 1464 1463 1463 1462 1462 1462 1462 1462
1478 1477 1476 1476 1475 1474 1473 1473 1472 1472 1471 1470 1470 1470 1469 1469 1469 1468 1468 1467 1467 1466 1465 1465 1464 1463 1463 1462 1461 1461 1461 1460 1460 1459 1458 1458 1458 1458
1475 1475 1474 1474 1474 1473 1472 1471 1471 1470 1469 1469 1468 1468 1468 1467 1466 1466 1465 1464 1464 1463 1462 1462 1461 1460 1459 1458 1457 1457 1457 1456 1456 1455 1455 1455 1454 1454
1472 1472 1472 1472 1472 1471 1470 1470 1469 1468 1467 1467 1466 1466 1465 1465 1464 1463 1463 1462 1461 1460 1459 1458 1458 1457 1456 1456 1454 1453 1452 1452 1452 1451 1451 1451 1450 1450
1469 1469 1469 1469 1470 1469 1468 1468 1467 1466 1465 1464 1464 1463 1463 1462 1461 1461 1460 1459 1458 1457 1456 1455 1454 1453 1452 1452 1451 1449 1449 1448 1448 1447 1447 1447 1446 1446
1467 1466 1466 1466 1466 1466 1466 1465 1464 1463 1462 1462 1461 1461 1460 1459 1459 1458 1457 1456 1455 1454 1453 1452 1451 1450 1449 1448 1446 1445 1445 1444 1443 1442 1442 1442 1442 1441
1463 1463 1463 1463 1463 1463 1462 1462 1462 1461 1460 1459 1458 1458 1457 1456 1456 1455 1454 1453 1452 1451 1450 1449 1448 1446 1445 1444 1443 1441 1441 1440 1439 1438 1438 1437 1437 1437